Regional Weather Roundup
Issued by NWS

Home | Current Version | Previous Version | Text Only | Print | Product List | Glossary Off
Versions: 1 2 3 4 5 6 7 8 9 10 11 12 13 14 15 16 17 18 19 20 21 22 23 24 25 26 27 28 29 30 31 32 33 34 35 36 37 38 39 40 41 42 43 44 45 46 47 48 49 50

000
ASUS43 KTOP 281008
RWRKS

WEATHER ROUNDUP FOR KANSAS
NATIONAL WEATHER SERVICE GOODLAND KS
400 AM CST TUE FEB 28 2017

NOTE:  "FAIR" INDICATES FEW OR NO CLOUDS BELOW 12,000 FEET WITH NO
SIGNIFICANT WEATHER AND/OR OBSTRUCTIONS TO VISIBILITY.

KSZ001>006-013>018-027>032-041>047-281100-
NORTHWEST KANSAS

CITY           SKY/WX    TMP DP  RH WIND       PRES   REMARKS
GOODLAND       CLEAR     26  20  77 NW10      29.70S WCI  16
HILL CITY      CLEAR     39  25  57 NW15G26   29.63S WCI  31
RUSSELL        CLOUDY    41  21  44 SW6       29.61S
$$

KSZ061>065-074>080-084>089-281100-
SOUTHWEST KANSAS

CITY           SKY/WX    TMP DP  RH WIND       PRES   REMARKS
DODGE CITY     CLOUDY    37  16  42 S8        29.66F
ELKHART          N/A     47  18  31 SW13        N/A
GARDEN CITY    CLOUDY    34  15  46 SW8       29.66F
GREAT BEND     CLOUDY    43  23  45 S6        29.64F
LIBERAL        CLOUDY    46  16  29 SW12      29.69S
PRATT          CLOUDY    44  32  63 S7        29.67R
$$

KSZ066>073-081>083-090>101-281100-
SOUTHEAST KANSAS

CITY           SKY/WX    TMP DP  RH WIND       PRES   REMARKS
CHANUTE        CLOUDY    62  58  86 S17G29    29.74F
COFFEYVILLE    CLOUDY    61  58  90 S18       29.76F
HUTCHINSON     PTCLDY    51  49  92 SE8       29.65F
MEDICINE LODGE   N/A     49  38  65 S9        29.67F
NEWTON         CLOUDY    56  55  97 S18       29.67F FOG
PARSONS        CLOUDY    62  58  86 S14G23    29.76F
WICHITA INTL   PTCLDY    55  55 100 S10       29.67F FOG
WICHITA JABRA  CLOUDY    59  58  96 S14G24    29.68F
WICHITA MCCONL CLOUDY    59  57  93 SW14      29.68F
WINFIELD       MOCLDY    61  58  90 S14       29.69F
$$

KSZ007>012-019>026-033>040-048>060-102>105-281100-
NORTHEAST KANSAS

CITY           SKY/WX    TMP DP  RH WIND       PRES   REMARKS
CONCORDIA      CLOUDY    48  38  68 SW12      29.61S
EMPORIA        CLOUDY    62  58  86 S23G35    29.69S
LAWRENCE       CLOUDY    64  59  83 S22G32    29.68R
MANHATTAN      PTCLDY    57  53  86 SW13      29.64F
MARYSVILLE     CLOUDY    54  50  87 SW13      29.61S
OLATHE IND     CLOUDY    62  57  83 S20       29.70F
OLATHE EXE     CLOUDY    61  58  90 S20G25    29.70S
SALINA         PTCLDY    53  49  86 S12       29.65S
TOPEKA BILLARD PTCLDY    64  59  83 S17G26    29.66S
TOPEKA FORBES  MOCLDY    64  58  80 S18G26    29.67S
$$



USA.gov is the U.S. government's official web portal to all federal, state and local government web resources and services.